Location: McCall
(45.0000°N, 116.0000°W)
Time: 15:43:36
(UTC-06:00)

Amateur Radio Satellites - All Passes

Search period start: 22 October 2014 15:13
Search period end: 23 October 2014 15:13
Location: McCall, 45.0000°N, 116.0000°W

Satellite Date Start Highest point End Downlink Frequencies (MHz)
Time Altitude Azimuth
JAS-1B 22 Oct 15:17:27 15:23:12 45° 261° (W) 15:28:38 435.800 - 435.900 CW/SSB
Sapphire 22 Oct 15:23:44 15:28:45 38° 248° (WSW) 15:33:43 437.095 MHz 1200 baud AX-25 AFSK
AO-7 22 Oct 15:29:42 15:36:39 32° 54° (NE) 15:43:37 29.400 - 29.500 MHz
Oscar 19 22 Oct 15:29:53 15:34:04 25° 266° (W) 15:38:15 437.125 CW, 437.150 USB
AO-27 22 Oct 15:40:04 15:45:02 44° 261° (W) 15:50:03 436.795 MHz FM
PCSat 22 Oct 15:47:10 15:51:23 23° 252° (WSW) 15:55:35 145.825 MHz
KITSAT 1 22 Oct 15:51:44 15:59:00 35° 321° (NW) 16:06:17 435.175 FM
ISS 22 Oct 15:56:34 15:59:52 58° 335° (NNW) 16:03:11 145.800 FM
UOSAT-12 22 Oct 16:10:06 16:14:32 47° 119° (ESE) 16:19:04 437.025 FM, 437.400 FM
SO-50 22 Oct 16:13:56 16:17:46 26° 320° (NW) 16:21:41 436.795 FM
JAS-2 22 Oct 16:15:46 16:17:22 11° 46° (NE) 16:19:01 435.800 - 435.900 CW/SSB, 435.910 FM
Saudisat 1A 22 Oct 16:17:08 16:20:12 18° 36° (NE) 16:23:16 436.775 MHz
Uribyol 2 22 Oct 16:31:27 16:34:36 16° 270° (W) 16:37:47 436.500 FM
AO-Echo 22 Oct 16:33:09 16:35:06 12° 273° (W) 16:37:03 ?
Uosat F 22 Oct 16:33:44 16:38:20 38° 67° (ENE) 16:42:59 435.120 FM
ITAMSAT 1 22 Oct 16:37:03 16:40:01 15° 271° (W) 16:43:00 435.822 SSB
Gurwin Techsat 1B 22 Oct 16:40:22 16:44:47 26° 266° (W) 16:49:13 435.225 FM
TMSAT-1 22 Oct 16:53:12 16:57:39 27° 266° (W) 17:02:08 436.925 FM
AO-7 22 Oct 17:20:36 17:28:51 70° 254° (WSW) 17:37:08 29.400 - 29.500 MHz
ISS 22 Oct 17:34:09 17:37:01 26° 355° (N) 17:39:54 145.800 FM
Hamsat 22 Oct 17:47:31 17:50:53 24° 67° (ENE) 17:54:15 145.90 MHz
UOSAT-12 22 Oct 17:50:49 17:54:53 29° 318° (NW) 17:59:01 437.025 FM, 437.400 FM
KITSAT 1 22 Oct 17:52:16 17:57:15 17° 350° (N) 18:02:15 435.175 FM
JAS-2 22 Oct 17:55:01 18:00:44 54° 68° (ENE) 18:07:15 435.800 - 435.900 CW/SSB, 435.910 FM
Saudisat 1A 22 Oct 17:55:54 18:00:21 83° 236° (WSW) 18:04:46 436.775 MHz
OPAL 22 Oct 18:05:09 18:08:44 20° 94° (E) 18:12:17 ?
Uosat F 22 Oct 18:12:54 18:17:12 28° 265° (W) 18:21:33 435.120 FM
SO-67 22 Oct 19:08:29 19:11:02 20° 68° (ENE) 19:13:36 435.3500 MHz FM
ISS 22 Oct 19:11:16 19:14:21 33° 15° (NNE) 19:17:25 145.800 FM
AO-7 22 Oct 19:19:19 19:23:07 14° 274° (W) 19:26:57 29.400 - 29.500 MHz
Hamsat 22 Oct 19:22:52 19:26:41 33° 264° (W) 19:30:31 145.90 MHz
JAS-2 22 Oct 19:41:23 19:46:16 27° 270° (W) 19:51:41 435.800 - 435.900 CW/SSB, 435.910 FM
OPAL 22 Oct 19:43:06 19:47:57 54° 292° (WNW) 19:52:45 ?
STRAND 1 22 Oct 19:45:10 19:49:19 24° 93° (E) 19:53:25 ?
KITSAT 1 22 Oct 19:50:38 19:56:20 20° 21° (NNE) 20:02:01 435.175 FM
AO-40 22 Oct 20:15:26 02:03:10 39° 163° (SSE) 03:49:34 Beacon 2401.320
HO-68 22 Oct 20:39:44 20:46:06 36° 60° (ENE) 20:52:29 435.675 MHz FM
SO-67 22 Oct 20:40:57 20:43:53 26° 265° (W) 20:46:50 435.3500 MHz FM
ISS 22 Oct 20:47:55 20:51:14 64° 214° (SSW) 20:54:32 145.800 FM
SO-50 22 Oct 21:22:25 21:25:41 18° 34° (NNE) 21:29:00 436.795 FM
STRAND 1 22 Oct 21:23:47 21:28:43 47° 291° (WNW) 21:33:37 ?
Oscar 11 22 Oct 21:30:21 21:33:25 19° 64° (ENE) 21:36:30 145.825 FM, Beacon 2401.500 USB
KITSAT 1 22 Oct 21:46:03 21:53:54 51° 47° (NE) 22:01:42 435.175 FM
ZACube-1 22 Oct 22:12:29 22:16:10 24° 66° (ENE) 22:19:48 437.345 MHz
UKube-1 22 Oct 22:21:15 22:25:34 72° 74° (ENE) 22:29:56 145.840 MHz, 145.915 MHz
HO-68 22 Oct 22:26:40 22:33:35 51° 260° (W) 22:40:34 435.675 MHz FM
FUNcube-1 22 Oct 22:56:44 23:01:17 64° 74° (ENE) 23:05:47 145.950 - 145.970 MHz USB
UOSAT-12 22 Oct 22:58:36 23:01:31 16° 31° (NNE) 23:04:25 437.025 FM, 437.400 FM
RS-15 22 Oct 22:58:46 23:08:52 45° 110° (ESE) 23:18:54 29.354 - 29.394 USB, Beacon 29.352 USB
SO-50 22 Oct 23:02:08 23:06:59 82° 54° (NE) 23:11:53 436.795 FM
Oscar 11 22 Oct 23:05:08 23:09:17 45° 261° (W) 23:13:28 145.825 FM, Beacon 2401.500 USB
KITSAT 1 22 Oct 23:41:42 23:49:14 45° 248° (WSW) 23:56:44 435.175 FM
ZACube-1 22 Oct 23:48:03 23:52:21 39° 262° (W) 23:56:38 437.345 MHz
UKube-1 23 Oct 00:00:43 00:02:16 12° 271° (W) 00:03:49 145.840 MHz, 145.915 MHz
MaSat-1 23 Oct 00:07:42 00:09:02 11° 105° (ESE) 00:10:19 437.345 MHz
FUNcube-1 23 Oct 00:35:33 00:38:04 14° 270° (W) 00:40:33 145.950 - 145.970 MHz USB
UOSAT-12 23 Oct 00:37:48 00:42:32 71° 52° (NE) 00:47:11 437.025 FM, 437.400 FM
SO-50 23 Oct 00:44:21 00:46:56 15° 251° (WSW) 00:49:32 436.795 FM
RS-15 23 Oct 01:10:03 01:20:52 61° 314° (NW) 01:31:44 29.354 - 29.394 USB, Beacon 29.352 USB
Oscar 10/S400 23 Oct 01:34:11 02:33:34 24° 235° (SW) 05:25:03 145.825 - 145.975 CW/USB, Beacon 145.810 USB
MaSat-1 23 Oct 01:40:11 01:44:20 71° 298° (WNW) 01:48:06 437.345 MHz
Oscar 19 23 Oct 02:00:57 02:03:20 13° 88° (E) 02:05:42 437.125 CW, 437.150 USB
UOSAT-12 23 Oct 02:19:16 02:22:08 16° 251° (WSW) 02:24:57 437.025 FM, 437.400 FM
Oscar 16 23 Oct 02:44:37 02:49:17 34° 96° (E) 02:53:55 437.025 USB, Beacon 2401.1428
AO-Echo 23 Oct 02:56:20 03:00:40 25° 93° (E) 03:04:59 ?
JAS-1B 23 Oct 02:56:57 03:03:07 42° 99° (E) 03:10:20 435.800 - 435.900 CW/SSB
Uribyol 2 23 Oct 03:01:01 03:04:59 22° 92° (E) 03:08:54 436.500 FM
ITAMSAT 1 23 Oct 03:06:26 03:10:31 23° 93° (E) 03:14:34 435.822 SSB
Gurwin Techsat 1B 23 Oct 03:15:10 03:18:08 15° 89° (E) 03:21:04 435.225 FM
RS-15 23 Oct 03:26:53 03:36:02 29° 345° (NNW) 03:45:20 29.354 - 29.394 USB, Beacon 29.352 USB
TMSAT-1 23 Oct 03:27:51 03:30:40 14° 88° (E) 03:33:29 436.925 FM
Oscar 19 23 Oct 03:38:10 03:43:19 81° 286° (WNW) 03:48:25 437.125 CW, 437.150 USB
AO-27 23 Oct 03:50:48 03:55:59 57° 101° (E) 04:01:06 436.795 MHz FM
Oscar 16 23 Oct 04:24:03 04:28:35 33° 294° (WNW) 04:33:06 437.025 USB, Beacon 2401.1428
Sapphire 23 Oct 04:25:26 04:29:20 21° 106° (ESE) 04:33:16 437.095 MHz 1200 baud AX-25 AFSK
AO-Echo 23 Oct 04:34:33 04:39:37 48° 290° (WNW) 04:44:42 ?
Uribyol 2 23 Oct 04:39:41 04:44:46 53° 290° (WNW) 04:49:47 436.500 FM
ITAMSAT 1 23 Oct 04:45:13 04:50:17 50° 290° (WNW) 04:55:18 435.822 SSB
PCSat 23 Oct 04:47:04 04:51:53 34° 111° (ESE) 04:56:44 145.825 MHz
JAS-1B 23 Oct 04:47:52 04:53:44 39° 294° (WNW) 05:00:33 435.800 - 435.900 CW/SSB
Gurwin Techsat 1B 23 Oct 04:53:22 04:58:42 77° 286° (WNW) 05:04:00 435.225 FM
TMSAT-1 23 Oct 05:05:53 05:11:13 79° 286° (WNW) 05:16:30 436.925 FM
Oscar 19 23 Oct 05:19:45 05:21:50 13° 304° (NW) 05:23:55 437.125 CW, 437.150 USB
AO-7 23 Oct 05:20:07 05:27:39 37° 97° (E) 05:35:09 29.400 - 29.500 MHz
OPAL 23 Oct 05:21:19 05:26:13 46° 67° (ENE) 05:31:05 ?
AO-27 23 Oct 05:31:09 05:35:05 22° 299° (WNW) 05:39:00 436.795 MHz FM
RS-15 23 Oct 05:43:18 05:52:49 32° 21° (NNE) 06:02:35 29.354 - 29.394 USB, Beacon 29.352 USB
Sapphire 23 Oct 06:06:54 06:12:16 64° 305° (NW) 06:17:41 437.095 MHz 1200 baud AX-25 AFSK
Uosat F 23 Oct 06:17:36 06:22:41 76° 104° (ESE) 06:27:43 435.120 FM
PCSat 23 Oct 06:30:06 06:35:12 41° 310° (NW) 06:40:21 145.825 MHz
Gurwin Techsat 1B 23 Oct 06:35:38 06:37:47 13° 305° (NW) 06:39:55 435.225 FM
JAS-2 23 Oct 06:45:55 06:53:21 48° 97° (E) 07:00:50 435.800 - 435.900 CW/SSB, 435.910 FM
TMSAT-1 23 Oct 06:48:00 06:50:16 13° 305° (NW) 06:52:32 436.925 FM
OPAL 23 Oct 07:01:07 07:05:17 25° 264° (W) 07:09:27 ?
STRAND 1 23 Oct 07:02:48 07:07:36 42° 68° (ENE) 07:12:26 ?
Hamsat 23 Oct 07:06:08 07:10:00 35° 97° (E) 07:13:51 145.90 MHz
AO-7 23 Oct 07:12:41 07:20:44 57° 297° (WNW) 07:28:47 29.400 - 29.500 MHz
Sapphire 23 Oct 07:53:38 07:56:48 15° 327° (NNW) 07:59:59 437.095 MHz 1200 baud AX-25 AFSK
RS-15 23 Oct 07:56:24 08:07:32 71° 50° (NE) 08:19:06 29.354 - 29.394 USB, Beacon 29.352 USB
Uosat F 23 Oct 07:57:49 08:00:51 16° 302° (WNW) 08:03:53 435.120 FM
SO-67 23 Oct 08:02:27 08:04:50 17° 93° (E) 08:07:12 435.3500 MHz FM
Saudisat 1A 23 Oct 08:05:49 08:08:25 16° 110° (ESE) 08:11:02 436.775 MHz
PCSat 23 Oct 08:18:24 08:20:10 11° 333° (NNW) 08:21:57 145.825 MHz
JAS-2 23 Oct 08:31:07 08:38:14 43° 295° (WNW) 08:45:30 435.800 - 435.900 CW/SSB, 435.910 FM
Hamsat 23 Oct 08:42:30 08:45:46 23° 294° (WNW) 08:49:03 145.90 MHz
STRAND 1 23 Oct 08:42:39 08:46:56 27° 266° (W) 08:51:15 ?
AO-7 23 Oct 09:07:28 09:11:47 15° 319° (NW) 09:16:06 29.400 - 29.500 MHz
SO-67 23 Oct 09:34:50 09:37:52 29° 289° (WNW) 09:40:54 435.3500 MHz FM
Saudisat 1A 23 Oct 09:43:07 09:47:29 66° 308° (NW) 09:51:53 436.775 MHz
MaSat-1 23 Oct 09:49:48 09:52:00 21° 53° (NE) 09:54:02 437.345 MHz
HO-68 23 Oct 09:52:19 09:58:28 29° 94° (E) 10:04:33 435.675 MHz FM
RS-15 23 Oct 10:09:23 10:19:11 37° 253° (WSW) 10:29:23 29.354 - 29.394 USB, Beacon 29.352 USB
UKube-1 23 Oct 10:10:20 10:11:09 10° 88° (E) 10:11:57 145.840 MHz, 145.915 MHz
JAS-2 23 Oct 10:20:15 10:21:24 10° 315° (NW) 10:22:35 435.800 - 435.900 CW/SSB, 435.910 FM
Oscar 11 23 Oct 10:50:56 10:54:37 27° 95° (E) 10:58:17 145.825 FM, Beacon 2401.500 USB
Saudisat 1A 23 Oct 11:25:34 11:27:54 14° 329° (NNW) 11:30:14 436.775 MHz
MaSat-1 23 Oct 11:26:09 11:27:24 13° 254° (WSW) 11:28:37 437.345 MHz
ZACube-1 23 Oct 11:35:24 11:39:20 34° 96° (E) 11:43:09 437.345 MHz
HO-68 23 Oct 11:39:30 11:46:33 60° 293° (WNW) 11:53:34 435.675 MHz FM
UKube-1 23 Oct 11:43:30 11:47:54 80° 286° (WNW) 11:52:15 145.840 MHz, 145.915 MHz
PCSat 23 Oct 11:50:45 11:52:47 12° 28° (NNE) 11:54:49 145.825 MHz
Oscar 10/S400 23 Oct 12:06:53 12:17:06 13° 150° (SSE) 12:25:23 145.825 - 145.975 CW/USB, Beacon 145.810 USB
KITSAT 1 23 Oct 12:18:32 12:24:31 23° 104° (ESE) 12:30:29 435.175 FM
FUNcube-1 23 Oct 12:20:21 12:24:39 78° 285° (WNW) 12:28:50 145.950 - 145.970 MHz USB
Oscar 11 23 Oct 12:27:02 12:30:47 30° 292° (WNW) 12:34:32 145.825 FM, Beacon 2401.500 USB
Sapphire 23 Oct 13:09:56 13:14:42 30° 45° (NE) 13:19:25 437.095 MHz 1200 baud AX-25 AFSK
ZACube-1 23 Oct 13:12:08 13:15:34 24° 294° (WNW) 13:18:55 437.345 MHz
Oscar 19 23 Oct 13:19:03 13:23:11 25° 63° (ENE) 13:27:20 437.125 CW, 437.150 USB
SO-50 23 Oct 13:20:49 13:23:31 16° 109° (ESE) 13:26:16 436.795 FM
HO-68 23 Oct 13:29:29 13:32:50 14° 314° (NW) 13:36:11 435.675 MHz FM
PCSat 23 Oct 13:32:29 13:37:42 44° 51° (NE) 13:42:51 145.825 MHz
ISS 23 Oct 13:32:36 13:34:28 14° 133° (SE) 13:36:20 145.800 FM
AO-27 23 Oct 13:34:10 13:37:17 16° 58° (ENE) 13:40:24 436.795 MHz FM
JAS-1B 23 Oct 13:46:08 13:51:31 38° 66° (ENE) 13:56:42 435.800 - 435.900 CW/SSB
Oscar 16 23 Oct 14:03:22 14:08:27 61° 72° (ENE) 14:13:32 437.025 USB, Beacon 2401.1428
KITSAT 1 23 Oct 14:10:53 14:18:59 83° 304° (WNW) 14:27:08 435.175 FM
AO-Echo 23 Oct 14:11:11 14:15:39 36° 67° (ENE) 14:20:16 ?
Uribyol 2 23 Oct 14:20:30 14:25:20 40° 67° (ENE) 14:30:12 436.500 FM
ITAMSAT 1 23 Oct 14:26:06 14:30:58 42° 68° (ENE) 14:35:52 435.822 SSB
AO-7 23 Oct 14:33:30 14:37:57 16° 42° (NE) 14:42:25 29.400 - 29.500 MHz
Gurwin Techsat 1B 23 Oct 14:37:38 14:42:09 29° 64° (ENE) 14:46:42 435.225 FM
TMSAT-1 23 Oct 14:49:55 14:54:23 28° 64° (ENE) 14:58:51 436.925 FM
Sapphire 23 Oct 14:53:07 14:58:23 52° 245° (WSW) 15:03:37 437.095 MHz 1200 baud AX-25 AFSK
UOSAT-12 23 Oct 14:53:25 14:55:29 13° 108° (ESE) 14:57:35 437.025 FM, 437.400 FM
Oscar 19 23 Oct 14:57:19 15:02:16 46° 261° (W) 15:07:14 437.125 CW, 437.150 USB
SO-50 23 Oct 14:59:01 15:03:31 68° 308° (NW) 15:08:10 436.795 FM
